This is the latest recevied weather packets stored in our database for station/object EA6AMI-5. If no packets are shown the sender has not sent any weather packets the latest 1 day(s).
| Time | Temp. | Humidity | Pressure | Rain* | Wind** | Luminosity | Snow |
|---|---|---|---|---|---|---|---|
| 1778079604 | 16.11° C | 87% | 1012 hPa | 3.3 mm | - | 169 W/m² | - |
| 1778078704 | 16.11° C | 87% | 1012.1 hPa | 3.05 mm | - | 80 W/m² | - |
| 1778077624 | 16.11° C | 85% | 1012.1 hPa | 2.79 mm | - | 51 W/m² | - |
| 1778076004 | 16.67° C | 83% | 1012.5 hPa | 0.76 mm | - | 36 W/m² | - |
| 1778074024 | 17.78° C | 80% | 1012.4 hPa | 0.51 mm | - | 98 W/m² | - |
| 1778072944 | 18.33° C | 73% | 1012.4 hPa | 0 mm | - | 113 W/m² | - |
| 1778072044 | 18.33° C | 70% | 1012.4 hPa | 0 mm | - | 155 W/m² | - |
| 1778071504 | 18.33° C | 68% | 1012.1 hPa | 0 mm | - | 155 W/m² | - |
| 1778070424 | 19.44° C | 63% | 1011.9 hPa | 0 mm | - | 64 W/m² | - |
| 1778069344 | 20.56° C | 60% | 1011.7 hPa | 0 mm | - | 83 W/m² | - |
| 1778064844 | 22.78° C | 46% | 1012 hPa | 0 mm | - | 952 W/m² | - |
| 1778064304 | 22.22° C | 48% | 1011.8 hPa | 0 mm | - | 910 W/m² | - |
| 1778063224 | 21.67° C | 51% | 1012 hPa | 0 mm | - | 904 W/m² | - |
| 1778062144 | 21.11° C | 52% | 1012 hPa | 0 mm | - | 829 W/m² | - |
| 1778061604 | 21.67° C | 52% | 1012.3 hPa | 0 mm | - | 824 W/m² | - |
| 1778060164 | 21.11° C | 53% | 1012.2 hPa | 0 mm | - | 721 W/m² | - |
| 1778059624 | 20.56° C | 57% | 1012 hPa | 0 mm | - | 684 W/m² | - |
| 1778058004 | 20° C | 56% | 1012 hPa | 0 mm | - | 589 W/m² | - |
| 1778057104 | 19.44° C | 59% | 1012 hPa | 0 mm | - | 545 W/m² | - |
| 1778055484 | 19.44° C | 64% | 1012.3 hPa | 0 mm | - | 432 W/m² | - |
| 1778052424 | 17.78° C | 70% | 1012.3 hPa | 0 mm | - | 293 W/m² | - |
| 1778051344 | 17.22° C | 77% | 1012.1 hPa | 0 mm | - | 244 W/m² | - |
| 1778049904 | 15° C | 84% | 1012.2 hPa | 0 mm | - | 63 W/m² | - |
| 1778049364 | 14.44° C | 84% | 1012.4 hPa | 0 mm | - | 59 W/m² | - |
| 1778048824 | 14.44° C | 83% | 1012.5 hPa | 0 mm | - | 45 W/m² | - |
* Rain latest hour (hover to see other rain measurements)
** Current wind speed in m/s (hover to see current wind gust speed)